Date String (YYYY-MM-DD hh:mm:ss) UTC,Instrument flags,Ambient pressure (hPa),Sample flow (lpm),Bypass flow (lpm),Sample temperature (°C),Ambient temperature (°C),ASC tube jacket temperature (°C),LED temperature (°C),Box temperature (°C),Sample RH (%),Span deviation,Mass concentration (μg/m³),Mass concentration (μg/m³),Mass concentration (μg/m³)
DateTimeUTC,F1_M11,P_M11,Q1_M11,Q2_M11,T1_M11,T2_M11,T3_M11,T4_M11,T5_M11,U1_M11,ZSPAN_M11,X2_M11,X0_M11,X1_M11
2023-04-23 07:00:00,,0831.2,5.01,0.00,22.7,21.2,00.0,31.1,24.2,14.7,0000.0,0004.17,0006.20,0003.85
2023-04-23 07:01:00,,0831.3,5.01,0.00,22.7,21.2,00.0,31.1,24.2,14.6,0000.0,0004.21,0006.20,0003.90
2023-04-23 07:02:00,,0831.2,4.99,0.00,22.6,21.2,00.0,31.1,24.2,14.5,0000.0,0004.20,0006.09,0003.92
2023-04-23 07:03:00,,0831.3,5.00,0.00,22.6,21.2,00.0,31.1,24.2,14.6,0000.0,0004.21,0006.12,0003.93
2023-04-23 07:04:00,,0831.2,5.01,0.00,22.6,21.2,00.0,31.0,24.2,14.7,0000.0,0004.25,0006.27,0003.97
2023-04-23 07:05:00,,0831.2,5.01,0.00,22.6,21.1,00.0,31.0,24.2,14.8,0000.0,0004.30,0006.46,0003.99
2023-04-23 07:06:00,,0831.2,4.99,0.00,22.6,21.2,00.0,31.0,24.2,14.8,0000.0,0004.29,0006.37,0003.99
2023-04-23 07:07:00,,0831.2,4.99,0.00,22.6,21.2,00.0,31.0,24.2,14.7,0000.0,0004.28,0006.39,0003.99
2023-04-23 07:08:00,,0831.3,5.01,0.00,22.6,21.2,00.0,31.0,24.1,14.8,0000.0,0004.32,0006.69,0003.97
2023-04-23 07:09:00,,0831.2,5.01,0.00,22.6,21.1,00.0,31.0,24.1,14.8,0000.0,0004.30,0006.78,0003.98
2023-04-23 07:10:00,,0831.2,5.01,0.00,22.6,21.1,00.0,31.0,24.1,14.8,0000.0,0004.31,0007.59,0003.99
2023-04-23 07:11:00,,0831.2,5.00,0.00,22.6,21.1,00.0,31.0,24.1,14.8,0000.0,0004.29,0007.54,0003.99
2023-04-23 07:12:00,,0831.2,5.00,0.00,22.6,21.1,00.0,31.0,24.1,14.8,0000.0,0004.30,0007.55,0004.01
2023-04-23 07:13:00,,0831.1,4.99,0.00,22.6,21.1,00.0,31.0,24.1,14.8,0000.0,0004.34,0007.61,0004.05
2023-04-23 07:14:00,,0831.1,5.00,0.00,22.6,21.1,00.0,31.0,24.2,14.8,0000.0,0004.39,0007.70,0004.07
2023-04-23 07:15:00,,0831.2,5.01,0.00,22.7,21.7,00.0,30.9,24.5,14.8,0000.0,0004.42,0007.78,0004.07
2023-04-23 07:16:00,,0831.2,5.02,0.00,22.8,22.6,00.0,30.9,24.8,14.7,0000.0,0004.40,0007.72,0004.07
2023-04-23 07:17:00,,0831.2,4.99,0.00,22.9,23.0,00.0,30.9,24.9,14.6,0000.0,0004.42,0007.79,0004.06
2023-04-23 07:18:00,,0831.2,4.99,0.00,22.9,22.8,00.0,31.0,24.8,14.6,0000.0,0004.42,0007.91,0004.06
2023-04-23 07:19:00,,0831.2,5.02,0.00,22.9,22.6,00.0,31.1,24.7,14.5,0000.0,0004.37,0008.14,0004.05
2023-04-23 07:20:00,,0831.2,5.01,0.00,22.9,22.3,00.0,31.1,24.6,14.5,0000.0,0004.36,0008.13,0004.04
2023-04-23 07:21:00,,0831.2,5.00,0.00,22.9,22.1,00.0,31.1,24.5,14.4,0000.0,0004.34,0007.45,0004.01
2023-04-23 07:22:00,,0831.1,4.99,0.00,22.9,21.9,00.0,31.1,24.5,14.3,0000.0,0004.28,0007.40,0003.96
2023-04-23 07:23:00,,0831.1,5.00,0.00,22.9,21.7,00.0,31.1,24.4,14.3,0000.0,0004.24,0007.37,0003.91
2023-04-23 07:24:00,,0831.1,5.01,0.00,22.9,21.6,00.0,31.1,24.4,14.4,0000.0,0004.25,0007.46,0003.91
2023-04-23 07:25:00,,0831.1,5.01,0.00,22.8,21.5,00.0,31.2,24.4,14.4,0000.0,0004.21,0007.38,0003.89
2023-04-23 07:26:00,,0831.1,5.00,0.00,22.8,21.5,00.0,31.2,24.4,14.5,0000.0,0004.18,0007.26,0003.88
2023-04-23 07:27:00,,0831.1,4.98,0.00,22.8,21.4,00.0,31.2,24.4,14.5,0000.0,0004.17,0007.22,0003.87
2023-04-23 07:28:00,,0831.1,4.99,0.00,22.8,21.4,00.0,31.2,24.4,14.5,0000.0,0004.15,0007.12,0003.88
2023-04-23 07:29:00,,0831.1,5.01,0.00,22.8,21.3,00.0,31.2,24.4,14.4,0000.0,0004.13,0006.97,0003.86
2023-04-23 07:30:00,,0831.1,5.00,0.00,22.8,21.3,00.0,31.2,24.3,14.4,0000.0,0004.13,0006.14,0003.85
2023-04-23 07:31:00,,0831.1,4.99,0.00,22.8,21.3,00.0,31.2,24.3,14.0,0000.0,0004.12,0006.20,0003.81
2023-04-23 07:32:00,,0831.1,5.00,0.00,22.8,21.2,00.0,31.2,24.3,13.8,0000.0,0004.06,0006.04,0003.74
2023-04-23 07:33:00,,0831.1,4.99,0.00,22.8,21.2,00.0,31.1,24.3,13.7,0000.0,0004.01,0005.95,0003.69
2023-04-23 07:34:00,,0831.1,5.00,0.00,22.7,21.1,00.0,31.1,24.3,13.6,0000.0,0003.98,0005.89,0003.66
2023-04-23 07:35:00,,0831.1,5.00,0.00,22.7,21.1,00.0,31.1,24.3,13.7,0000.0,0003.89,0005.55,0003.59
2023-04-23 07:36:00,,0831.1,5.01,0.00,22.7,21.1,00.0,31.1,24.3,13.9,0000.0,0003.84,0005.42,0003.54
2023-04-23 07:37:00,,0831.1,5.01,0.00,22.7,21.0,00.0,31.1,24.2,14.1,0000.0,0003.79,0005.28,0003.50
2023-04-23 07:38:00,,0831.1,5.01,0.00,22.7,21.0,00.0,31.1,24.2,14.1,0000.0,0003.71,0005.10,0003.43
2023-04-23 07:39:00,,0831.0,4.99,0.00,22.7,21.1,00.0,31.1,24.2,14.2,0000.0,0003.65,0004.98,0003.37
2023-04-23 07:40:00,,0830.9,4.99,0.00,22.7,21.1,00.0,31.1,24.2,14.3,0000.0,0003.62,0004.98,0003.34
2023-04-23 07:41:00,,0830.9,5.00,0.00,22.7,21.1,00.0,31.1,24.2,14.3,0000.0,0003.58,0004.90,0003.32
2023-04-23 07:42:00,,0831.0,5.00,0.00,22.6,21.0,00.0,31.1,24.2,14.2,0000.0,0003.55,0004.81,0003.31
2023-04-23 07:43:00,,0830.9,5.00,0.00,22.6,21.0,00.0,31.1,24.2,14.2,0000.0,0003.53,0004.69,0003.32
2023-04-23 07:44:00,,0830.9,5.01,0.00,22.7,21.5,00.0,31.0,24.5,14.2,0000.0,0003.57,0004.81,0003.35
2023-04-23 07:45:00,,0830.9,5.00,0.00,22.8,22.4,00.0,30.9,24.8,14.0,0000.0,0003.58,0004.83,0003.35
2023-04-23 07:46:00,,0830.9,4.99,0.00,22.9,23.2,00.0,31.0,25.0,13.8,0000.0,0003.59,0004.85,0003.36
2023-04-23 07:47:00,,0830.9,5.00,0.00,23.0,23.1,00.0,31.1,24.9,13.6,0000.0,0003.58,0004.84,0003.35
2023-04-23 07:48:00,,0830.9,5.00,0.00,23.0,22.8,00.0,31.1,24.7,13.6,0000.0,0003.55,0004.77,0003.33
2023-04-23 07:49:00,,0830.8,5.00,0.00,22.9,22.6,00.0,31.2,24.6,13.5,0000.0,0003.53,0004.73,0003.32
2023-04-23 07:50:00,,0830.8,5.00,0.00,22.9,22.3,00.0,31.2,24.6,13.3,0000.0,0003.52,0004.73,0003.29
2023-04-23 07:51:00,,0830.8,5.00,0.00,22.9,22.0,00.0,31.2,24.5,13.2,0000.0,0003.49,0004.67,0003.26
2023-04-23 07:52:00,,0830.8,5.00,0.00,22.9,21.8,00.0,31.2,24.5,13.2,0000.0,0003.47,0004.65,0003.23
2023-04-23 07:53:00,,0830.8,5.00,0.00,22.9,21.6,00.0,31.2,24.5,13.1,0000.0,0003.42,0004.48,0003.19
2023-04-23 07:54:00,,0830.8,5.00,0.00,22.9,21.5,00.0,31.2,24.4,13.1,0000.0,0003.39,0004.45,0003.17
2023-04-23 07:55:00,,0830.8,5.00,0.00,22.8,21.4,00.0,31.2,24.4,13.1,0000.0,0003.37,0004.37,0003.15
2023-04-23 07:56:00,,0830.8,5.00,0.00,22.8,21.3,00.0,31.2,24.4,13.0,0000.0,0003.38,0004.45,0003.15
2023-04-23 07:57:00,,0830.8,5.00,0.00,22.8,21.3,00.0,31.2,24.3,13.0,0000.0,0003.39,0004.56,0003.14
2023-04-23 07:58:00,,0830.9,5.01,0.00,22.8,21.2,00.0,31.2,24.3,13.0,0000.0,0003.38,0004.56,0003.13
2023-04-23 07:59:00,,0830.8,5.00,0.00,22.7,21.1,00.0,31.2,24.3,13.1,0000.0,0003.39,0004.59,0003.13
